Fulton, NY

7:26 PM EDT on October 13, 2019 (GMT -0400)
Oswego County

Weather History for KFZY - May, 2019

Change the Weather History Date:

Saturday, May 18, 2019

  Actual Average (KSYR) Record (KSYR)
Temperature  
Mean Temperature 52 °F -  
Max Temperature 64 °F 67 °F 90 °F (1962)
Min Temperature 39 °F 46 °F 30 °F (1983)
Degree Days  
Heating Degree Days 14    
Growing Degree Days 2 (Base 50)    
Moisture  
Dew Point 36 °F    
Average Humidity 53    
Maximum Humidity 86    
Minimum Humidity 34    
Precipitation  
Precipitation 0.00 in - - ()
Sea Level Pressure  
Sea Level Pressure 30.02 in    
Wind  
Wind Speed 4 mph (North)    
Max Wind Speed 9 mph    
Max Gust Speed -    
Visibility 10 miles    
Events      
Averages and records for this station are not official NWS values.
T = Trace of Precipitation, MM = Missing Value Source: NWS Daily Summary

Daily Weather History Graph

Daily Weather History Graph

Search for Another Location

Airport or City:

Astronomy

May. 18, 2019 Rise Set
Actual Time 5:38 AM EDT 8:26 PM EDT
Civil Twilight 5:05 AM EDT 8:59 PM EDT
Nautical Twilight 4:23 AM EDT 9:41 PM EDT
Astronomical Twilight 3:35 AM EDT 10:30 PM EDT
Moon 8:17 PM EDT (5/18) 5:46 AM EDT (5/18)
Length of Visible Light 15h 54m
Length of Day
14h 47m
Full, 100% of the Moon is Illuminated
May 18
Full
May 18
Full
May 26
Last Quarter
Jun 3
New
Jun 10
First Quarter

Hourly Weather History & Observations

Time (EDT) Temp. Windchill Dew Point Humidity Pressure Visibility Wind Dir Wind Speed Gust Speed Precip Events Conditions
12:54 AM 46.0 °F 44.8 °F 37.9 °F 73% 29.94 in 10.0 mi NW 3.5 mph - N/A   Clear
1:54 AM 43.0 °F - 37.0 °F 80% 29.94 in 10.0 mi Calm Calm - N/A   Clear
2:54 AM 42.1 °F - 37.0 °F 82% 29.95 in 10.0 mi Calm Calm - N/A   Clear
3:54 AM 39.9 °F 36.7 °F 36.0 °F 86% 29.97 in 10.0 mi NE 4.6 mph - N/A   Clear
4:54 AM 42.1 °F 39.2 °F 37.0 °F 82% 30.00 in 10.0 mi NNE 4.6 mph - N/A   Clear
5:54 AM 42.1 °F 40.2 °F 36.0 °F 79% 30.01 in 10.0 mi NNE 3.5 mph - N/A   Clear
6:54 AM 44.1 °F - 39.0 °F 82% 30.03 in 10.0 mi Calm Calm - N/A   Clear
7:54 AM 52.0 °F - 39.0 °F 61% 30.04 in 10.0 mi NE 3.5 mph - N/A   Clear
8:54 AM 53.1 °F - 37.0 °F 55% 30.06 in 10.0 mi NNE 6.9 mph - N/A   Clear
9:54 AM 54.0 °F - 37.9 °F 55% 30.07 in 10.0 mi SW 4.6 mph - N/A   Clear
10:54 AM 59.0 °F - 37.0 °F 44% 30.06 in 10.0 mi Variable 3.5 mph - N/A   Clear
11:54 AM 61.0 °F - 36.0 °F 39% 30.06 in 10.0 mi NNW 4.6 mph - N/A   Clear
12:54 PM 62.1 °F - 35.1 °F 37% 30.06 in 10.0 mi Variable 3.5 mph - N/A   Clear
1:54 PM 63.0 °F - 37.0 °F 38% 30.04 in 10.0 mi WNW 6.9 mph - N/A   Clear
2:54 PM 64.0 °F - 37.0 °F 37% 30.04 in 10.0 mi NW 8.1 mph - N/A   Clear
3:54 PM 61.0 °F - 34.0 °F 36% 30.04 in 10.0 mi NNW 9.2 mph - N/A   Clear
4:54 PM 62.1 °F - 33.1 °F 34% 30.04 in 10.0 mi North 8.1 mph - N/A   Overcast
5:54 PM 60.1 °F - 32.0 °F 35% 30.02 in 10.0 mi NE 5.8 mph - N/A   Overcast
6:54 PM 57.9 °F - 30.0 °F 35% 30.02 in 10.0 mi NE 4.6 mph - N/A   Mostly Cloudy
7:54 PM 57.0 °F - 32.0 °F 39% 30.01 in 10.0 mi NE 4.6 mph - N/A   Overcast
8:54 PM 55.9 °F - 33.1 °F 42% 30.02 in 10.0 mi East 3.5 mph - N/A   Overcast
9:54 PM 55.9 °F - 36.0 °F 47% 30.01 in 10.0 mi Calm Calm - N/A   Overcast
10:54 PM 57.0 °F - 34.0 °F 42% 29.99 in 10.0 mi Variable 3.5 mph - N/A   Mostly Cloudy
11:54 PM 57.0 °F - 33.1 °F 40% 29.97 in 10.0 mi Variable 3.5 mph - N/A   Scattered Clouds